CW3442 Weather Reports


Display with metric or nautical units.
time (UTC)temp
F
wind
direction
speed
MPH
gust
MPH
rain 1hr
in
rain 24hr
in
rain mn
in
humidity
%
barometer
mb
20260506190333 46 140 0.0 0.0 0.00 0.00 0.00 82 787.1
20260506183348 46 127 0.0 0.0 0.00 0.00 0.00 83 787.1
20260506180326 45 138 0.0 0.0 0.00 0.00 0.00 85 787.2
20260506173344 45 103 0.0 0.0 0.00 0.00 0.00 88 787.2
20260506170337 44 217 0.0 0.0 0.00 0.00 0.00 91 787.3
20260506163335 43 109 0.0 0.0 0.00 0.00 0.00 92 787.3
20260506160329 43 197 0.0 0.0 0.00 0.00 0.00 92 787.4
20260506153349 43 182 0.0 0.0 0.00 0.00 0.00 92 787.4
20260506150325 43 142 0.0 0.0 0.00 0.00 0.00 92 787.5
20260506143348 43 126 0.0 0.0 0.00 0.00 0.00 91 787.3
20260506133334 43 100 0.0 0.0 0.00 0.00 0.00 90 787.3
20260506130323 43 88 0.0 0.0 0.00 0.00 0.00 90 787.4
20260506123344 44 198 0.0 0.0 0.00 0.00 0.00 90 787.3
20260506120321 44 207 0.0 0.0 0.00 0.00 0.00 89 787.3
20260506113325 44 132 0.0 0.0 0.00 0.00 0.00 88 787.3
20260506110332 45 213 0.0 0.0 0.00 0.00 0.00 85 787.4
20260506103347 46 128 0.0 0.0 0.00 0.00 0.00 83 787.2
20260506100332 47 103 0.0 0.0 0.00 0.00 0.00 82 787.2
20260506093335 48 184 0.0 0.0 0.00 0.00 0.00 83 787.2
20260506090325 48 90 0.0 0.0 0.00 0.00 0.00 81 787.1
20260506083326 49 184 0.0 0.0 0.00 0.00 0.00 81 787.2
20260506080340 49 198 0.0 0.0 0.00 0.00 0.00 81 787.2
20260506073336 49 207 0.0 0.0 0.00 0.00 0.00 81 787.1
20260506070324 50 213 0.0 0.0 0.00 0.00 0.00 80 787.1
20260506060339 51 70 0.0 0.0 0.00 0.00 0.00 78 787.0
20260506050325 52 80 0.0 0.0 0.00 0.00 0.00 75 786.9
20260506043328 52 157 0.0 0.0 0.00 0.00 0.00 74 786.8
20260506040335 53 220 0.0 0.0 0.00 0.00 0.00 73 786.7
20260506033333 53 225 1.0 0.0 0.00 0.00 0.00 72 786.6
20260506030333 54 175 1.0 0.0 0.00 0.00 0.00 69 786.6
20260506023343 55 290 1.0 0.0 0.00 0.00 0.00 69 786.6
20260506020330 56 173 0.0 0.0 0.00 0.00 0.00 66 786.5
20260506013349 56 14 0.0 0.0 0.00 0.00 0.00 65 786.4
20260506010337 56 317 0.0 0.0 0.00 0.00 0.00 68 786.3
20260506003337 57 239 0.0 0.0 0.00 0.00 0.00 64 786.1
20260506000323 61 269 0.0 0.0 0.00 0.00 0.00 56 785.9
20260505233335 62 288 0.0 0.0 0.00 0.00 0.00 53 785.8
20260505230324 63 287 0.0 0.0 0.00 0.00 0.00 54 785.7
20260505223327 64 288 0.0 0.0 0.00 0.00 0.00 62 785.5
20260505220358 65 284 0.0 0.0 0.00 0.00 0.00 62 785.3
20260505213339 66 271 0.0 0.0 0.00 0.00 0.00 64 785.2
20260505210334 66 203 0.0 0.0 0.00 0.00 0.00 62 785.2
20260505203333 67 265 0.0 0.0 0.00 0.00 0.00 60 785.1
20260505200340 70 259 0.0 0.0 0.00 0.00 0.00 55 784.8
20260505193337 72 129 1.0 0.0 0.00 0.00 0.00 52 784.8